World > North America > United States > Washington

Chuckanut, Washington Regional Weather

Lat: 48.67N, Lon: 122.48W
Wx Zone: WAZ503Web Search

Pass this page to a friend. Tell them to point their camera at the QR Code near the bottom of this page.

Feedback


°F Click to change Chuckanut hourly weather to Imperial units.Click to change Chuckanut hourly weather to Metric units. °C
Chuckanut Weather Map
UTC Time: 4/15/2021, 04:10
Your Time:

Chuckanut, WA Regional Weather

Expires:202104150400;;570195
ASUS46 KSEW 150320
RWRWA 

WASHINGTON REGIONAL WEATHER ROUNDUP
NATIONAL WEATHER SERVICE SEATTLE WA
800 PM PDT WED APR 14 2021

NOTE:"FAIR" INDICATES FEW OR NO CLOUDS BELOW 12,000 FEET WITH NO 
SIGNIFICANT WEATHER AND/OR OBSTRUCTIONS TO VISIBILITY.


WAZ001-503-506-510-514-515-150400-
NORTH INTERIOR
  
CITY           SKY/WX    TMP DP  RH WIND       PRES   REMARKS
BELLINGHAM     CLEAR     55  42  61 S3        30.06F                  
FRIDAY HARBOR  CLEAR     53  35  50 CALM      30.08F                  
EASTSOUND      CLEAR     54  36  50 CALM      30.07S                  
PORT ANGELES   CLEAR     61  27  27 S3        30.09S                  
EDIZ HOOK      FAIR      54  40  59 W6        30.08S                  
PORT TOWNSEND  FAIR      55  27  33 CALM      30.07R                  
NAS WHIDBEY    PTCLDY    53  37  54 CALM      30.11S                  
ARLINGTON      CLEAR     57  33  40 W3        30.08S                  
BURLINGTON     CLEAR     52  36  54 CALM      30.07S                  
$$
 

SKY/WX - Weather  TMP - Temperature  DP - Dew Point  RH - Relative Humidity
WIND - Wind Direction/Speed PRES - Barometric Pressure VSB - Visibility
WCI - Wind Chill Index E13G22 Wind - East Wind 13 mph/Gusts of 22 mph